Flag for Germany Weather past 2 weeks in Flensburg, Schleswig-Holstein, Germany

Now
47 °F

Clear.


Feels Like: 45 °F
Forecast: 52 / 57 °F
Wind: 5 mph from Southwest

Location: Schleswig

Current Time: Oct 26, 2014 at 4:23:21 AM

Latest Report: Oct 26, 2014 at 3:00 AM


Visibility: 9 mi

Pressure: 30.12 "Hg

Humidity: 92%

Dew point: 45 °F

Location of FlensburgLocation

Historic Weather in Flensburg — Graph

°F

Flensburg temperature yesterday

Maximum temperature yesterday: 58 °F (at 4:00 PM)
Minimum temperature yesterday: 49 °F (at 7:00 AM)
Average temperature yesterday: 52 °F

Past Weeks' High & Low Weather Summary

 TemperatureHumidityPressure
High64 °F (Oct 11, 3:00 PM)100% (Oct 11, 8:00 AM)30.14 "Hg (Oct 11, 8:00 AM)
Low46 °F (Oct 11, 8:00 AM)61% (Oct 12, 2:00 PM)29.29 "Hg (Oct 21, 7:00 PM)
Average54 °F92%29.84 "Hg
* Reported Oct 11 4:00 AM — Oct 26 3:00 AM, Flensburg, Weather by CustomWeather, © 2014

Note: Actual official high and low records may vary slightly from our data, if they occured in-between our weather recording intervals... More about our weather records

Advertising

Flensburg weather history for previous 24 hours

 ConditionsComfort  
Time TempWeatherWind HumidityBarometerVisibility
3:00 AM
Oct 26
47 °FClear.5 mph92%30.12 "Hg11 mi
2:00 AM47 °FClear.5 mph93%30.12 "Hg12 mi
2:00 AM47 °FClear.5 mph92%30.12 "Hg12 mi
1:00 AM48 °FClear.5 mph92%30.11 "Hg9 mi
12:00 AM49 °FPassing clouds.5 mph94%30.11 "Hg9 mi
10:00 PM
Oct 25
50 °FClear.3 mph97%30.09 "Hg5 mi
9:00 PM51 °FPassing clouds.3 mph96%30.07 "Hg7 mi
8:00 PM53 °FPassing clouds.3 mph93%30.06 "Hg9 mi
7:00 PM52 °FPassing clouds.2 mph94%30.06 "Hg12 mi
6:00 PM54 °FPartly sunny.2 mph90%30.04 "Hg12 mi
5:00 PM55 °FOvercast.3 mph86%30.03 "Hg16 mi
4:00 PM58 °FPartly sunny.3 mph79%30.01 "Hg16 mi
3:00 PM56 °FPartly sunny.2 mph94%30.01 "Hg5 mi
2:00 PM54 °FDrizzle. Low clouds.5 mph98%30.00 "Hg2 mi
1:00 PM53 °FFog.5 mph100%30.00 "Hg1 mi
12:00 PM51 °FFog.5 mph100%30.00 "Hg0 mi
11:00 AM51 °FDrizzle. Dense fog.5 mph100%29.99 "Hg1 mi
10:00 AM50 °FLow clouds.6 mph99%29.98 "Hg1 mi
9:00 AM50 °FDrizzle. Low clouds.7 mph99%29.98 "Hg2 mi
8:00 AM49 °FDrizzle. Low clouds.6 mph99%29.96 "Hg1 mi
7:00 AM49 °FDrizzle. Low clouds.5 mph97%29.96 "Hg2 mi
6:00 AM50 °FRain. Low clouds.6 mph97%29.96 "Hg1 mi
4:00 AM50 °FRain. Low clouds.6 mph98%29.97 "Hg1 mi
Weather by CustomWeather, © 2014

See weather overviewHow to use our weather pages